FENGYUN 1C DEB, 36686

Orbit data source: Space-Track

FENGYUN 1C DEB, 36686 is space debris in SSO originally from a launch on Mon, 10 May 1999 UTC launched from the Taiyaun Space Center, China (TSC). Fengyun 1C debris stems from the Chinese weather satellite Fengyun-1C, which was intentionally destroyed by a Chinese anti-satellite missile in 2007. This event dramatically increased the amount of space debris, with thousands of trackable fragments posing hazards to satellites and human spaceflight. The Fengyun 1C debris cloud has become a focal point in discussions about space sustainability and the need for international regulations to prevent the creation of new debris.

Loading next visibility...
Identifier
36686, 1999-025DZG
Orbit
SSO
Country
Flag of CNCN / PRC
Related business
Manufacturer
Unknown
Mission
Spacecraft
Bus & Motor
Unknown
Mass
Unknown
Launch date (UTC)
1999-05-10 (27 years ago)
Launch vehicle
Unknown
Launch site
Taiyaun Space Center, China (TSC)
Object type
Payload
Rocket body
Debris
Shape & HBR
Unknown shape, 0.1 m
Radar Cross Section
Small (<0.1 m²)

Expand to show TLE details & history
Last TLE update: 17 hours ago

TLE from 17 hours ago
0 FENGYUN 1C DEB
1 36686U 99025DZG 26164.32034569  .00004846  00000-0  60078-3 0  9991
2 36686  98.9902  22.1805 0098987 199.4853 160.2561 14.79797589685507
Epoch: 2026-06-13T07:41Z
TLE epoch observation values (Epoch: 2026-06-13T07:41:17.867Z)
Latitude
-0.00004°
Longitude
5.21893°
Altitude
698.334 km
Speed
7.472 km/s
True Right ascension
01h 28m 43s
True Declination
0° 00' 00"
Sunlit
Object was in daylight at epoch
Visualization orbit readout
Latitude
Unknown
Longitude
Unknown
Altitude
Unknown
Speed
Unknown
Apparent Right ascension
Unknown
Apparent Declination
Unknown
Sunlit
N/A
Visualization observer readout
Local Sidereal Time
10:54:41
Azimuth
Unknown
Elevation
Unknown
Doppler factor
Unknown
Orbital elements
Apogee altitude
696.398 km
Perigee altitude
557.714 km
Semi-major axis
7,005.193 km
Eccentricity
0.0099
Inclination
98.9902°
RAAN
22.1805°
Arg. of periapsis
199.4853°
True anomaly
160.63487°
Mean anomaly
160.2561°
Eccentric anomaly
160.44592°
Mean motion
3.7018 °/min
Orbital period
97.25 mins
BSTAR
0.00060078
Loading maneuver chart data...
Computing Atmospheric mass density...

Documentation

Showing up to 5 results
|